Mercury, NV

4:45 PM PDT on July 27, 2017 (GMT -0700)
Mercury

Weather History for KDRA - October, 2011

Change the Weather History Date:

Thursday, October 13, 2011

  Actual Average Record
Temperature  
Mean Temperature 72 °F 64 °F  
Max Temperature 90 °F 79 °F 92 °F (1991)
Min Temperature 54 °F 50 °F 38 °F (1981)
Degree Days  
Heating Degree Days 0    
Cooling Degree Days 6    
Growing Degree Days 22 (Base 50)    
Moisture  
Dew Point 17 °F    
Average Humidity 15    
Maximum Humidity 25    
Minimum Humidity 5    
Precipitation  
Precipitation 0.00 in 0.01 in 0.25 in (1987)
Month to date precipitation 0.13  
Year to date precipitation 4.70  
Sea Level Pressure  
Sea Level Pressure 29.90 in    
Wind  
Wind Speed 4 mph (East)    
Max Wind Speed 9 mph    
Max Gust Speed -    
Visibility 10 miles    
Events      
T = Trace of Precipitation, MM = Missing Value Source: NWS Daily Summary

Daily Weather History Graph

Daily Weather History Graph

Search for Another Location

Airport or City:

Trip Planner

Search our weather history database for the weather conditions in past years. The results will help you decide how hot, cold, wet, or windy it might be!

Date:

Astronomy

Oct. 13, 2011 Rise Set
Actual Time 6:49 AM PDT 6:10 PM PDT
Civil Twilight 6:23 AM PDT 6:36 PM PDT
Nautical Twilight 5:53 AM PDT 7:06 PM PDT
Astronomical Twilight 5:23 AM PDT 7:36 PM PDT
Moon 6:53 PM PDT (10/13) 8:21 AM PDT (10/13)
Length of Visible Light 12h 13m
Length of Day
11h 21m
Full, 97% of the Moon is Illuminated
Oct 13
Full
Oct 19
Last Quarter
Oct 26
New
Nov 2
First Quarter
Nov 10
Full

Hourly Weather History & Observations

Time (PDT) Temp. Dew Point Humidity Pressure Visibility Wind Dir Wind Speed Gust Speed Precip Events Conditions
12:53 AM 62.1 °F 14.0 °F 15% 29.97 in 10.0 mi Calm Calm - N/A   Clear
1:53 AM 61.0 °F 14.0 °F 16% 29.97 in 10.0 mi East 6.9 mph - N/A   Clear
2:53 AM 59.0 °F 15.1 °F 18% 29.97 in 10.0 mi NNE 5.8 mph - N/A   Clear
3:53 AM 55.9 °F 17.1 °F 22% 29.96 in 10.0 mi ESE 3.5 mph - N/A   Clear
4:53 AM 55.9 °F 18.0 °F 23% 29.96 in 10.0 mi North 4.6 mph - N/A   Clear
5:53 AM 54.0 °F 19.0 °F 25% 29.96 in 10.0 mi East 6.9 mph - N/A   Clear
6:53 AM 55.9 °F 17.1 °F 22% 29.98 in 10.0 mi Variable 3.5 mph - N/A   Clear
7:53 AM 60.1 °F 18.0 °F 20% 29.99 in 10.0 mi East 3.5 mph - N/A   Clear
8:53 AM 70.0 °F 19.9 °F 15% 29.98 in 10.0 mi Calm Calm - N/A   Clear
9:53 AM 75.9 °F 16.0 °F 10% 29.97 in 10.0 mi Calm Calm - N/A   Clear
10:53 AM 81.0 °F 15.1 °F 8% 29.94 in 10.0 mi Calm Calm - N/A   Clear
11:53 AM 84.0 °F 12.9 °F 7% 29.91 in 10.0 mi Calm Calm - N/A   Clear
12:53 PM 87.1 °F 9.0 °F 5% 29.88 in 10.0 mi Variable 3.5 mph - N/A   Clear
1:53 PM 88.0 °F 10.9 °F 6% 29.85 in 10.0 mi Calm Calm - N/A   Clear
2:53 PM 89.1 °F 14.0 °F 6% 29.83 in 10.0 mi SSW 5.8 mph - N/A   Clear
3:53 PM 89.1 °F 14.0 °F 6% 29.83 in 10.0 mi WSW 8.1 mph - N/A   Clear
4:53 PM 88.0 °F 14.0 °F 6% 29.82 in 10.0 mi SW 5.8 mph - N/A   Clear
5:53 PM 84.0 °F 15.1 °F 8% 29.82 in 10.0 mi WSW 4.6 mph - N/A   Clear
6:53 PM 73.0 °F 21.0 °F 14% 29.84 in 10.0 mi East 5.8 mph - N/A   Clear
7:10 PM 73.4 °F 21.2 °F 14% 29.94 in 10.0 mi East 8.1 mph - N/A   Partly Cloudy
7:53 PM 72.0 °F 21.0 °F 15% 29.85 in 10.0 mi ESE 9.2 mph - N/A   Clear
8:53 PM 69.1 °F 21.9 °F 17% 29.84 in 10.0 mi East 6.9 mph - N/A   Clear
9:53 PM 63.0 °F 24.1 °F 23% 29.85 in 10.0 mi East 4.6 mph - N/A   Clear
10:53 PM 63.0 °F 25.0 °F 24% 29.85 in 10.0 mi NNE 3.5 mph - N/A   Clear
11:53 PM 62.1 °F 25.0 °F 24% 29.85 in 10.0 mi East 5.8 mph - N/A   Clear